[[{"header":{"parameterUnit":"m.s-1","parameterCategory":1,"la1":30.2992,"la2":30.254,"lo1":-89.0895,"lo2":-89.0443,"dy":0.0025,"dx":0.0025,"nx":19,"ny":19,"refTime":"2026-04-09T21:00:00:Z","depth":0,"parameterNumber":2,"parameterNumberName":"U-component_of_WINDS"},"data":[0,0,0,-3.6172,-3.6172,-3.6174,-3.6174,-3.6225,-3.6226,0,0,0,0,0,0,0,0,0,0,0,-3.62,-3.6201,-3.6172,-3.6173,-3.6174,-3.6174,-3.6225,-3.6226,0,0,0,0,0,0,0,0,0,0,0,-3.6199,-3.6201,-3.6203,-3.6173,-3.6174,-3.6174,-3.6225,-3.6206,0,0,0,0,0,0,0,0,0,0,-3.6196,-3.625,-3.6201,-3.6203,-3.6173,-3.6174,-3.6174,-3.6205,-3.6207,-3.6245,0,-3.6285,0,-3.6257,-3.6232,-3.6233,0,0,0,-3.6152,-3.6248,-3.6222,-3.6203,-3.6173,-3.6174,-3.6167,-3.6206,-3.6209,-3.6249,-3.6285,-3.6286,-3.6257,-3.6233,-3.6234,-3.6517,-3.6519,0,0,-3.6152,-3.6216,-3.622,-3.6226,-3.6227,-3.6168,-3.6168,-3.6207,-3.6251,-3.6285,-3.6286,-3.6258,-3.6234,-3.6234,-3.6515,-3.6518,0,0,0,-3.6165,-3.6217,-3.6189,-3.6225,-3.6222,-3.6168,-3.6168,-3.6249,-3.6235,-3.6286,-3.6259,-3.6234,-3.6235,-3.6512,-3.6516,-3.6692,0,0,0,-3.6164,-3.6225,-3.619,-3.623,-3.6222,-3.6235,-3.6211,-3.6232,-3.6234,-3.6259,-3.6234,-3.6236,-3.6509,-3.6514,-3.6682,-3.6766,0,0,0,-3.619,-3.6227,-3.6237,-3.6233,-3.6236,-3.6233,-3.622,-3.6231,-3.6219,-3.6233,-3.6237,-3.6508,-3.6513,-3.6672,-3.675,-3.6859,0,0,0,-3.6237,-3.6395,-3.6241,-3.6408,-3.6237,-3.6342,-3.6219,-3.6294,-3.6328,-3.6235,-3.651,-3.6515,-3.667,-3.674,-3.685,-3.6963,-3.7016,0,0,-3.6473,-3.6426,-3.6519,-3.6381,-3.653,-3.6336,-3.6511,-3.6481,-3.6424,-3.649,-3.6496,-3.6685,-3.6749,-3.6857,-3.729,-3.7333,0,0,0,-3.6615,-3.6683,-3.6708,-3.6742,-3.6722,-3.6712,-3.6647,-3.6636,-3.6688,-3.6471,-3.6752,-3.6788,-3.6849,-3.69,-3.6936,-3.6984,-3.6542,-3.6541,-3.6541,-3.7044,-3.696,-3.7108,-3.7026,-3.706,-3.6992,-3.7012,-3.6986,-3.6893,-3.6961,-3.698,-3.7253,-3.7315,-3.7342,-3.7394,-3.7033,-3.7033,-3.7034,-3.7034,-3.7382,-3.7465,-3.7336,-3.7433,-3.7345,-3.7427,-3.7367,-3.7299,-3.7362,-3.7231,-3.7281,-3.7146,-3.7391,-3.7432,-3.7047,-3.7045,-3.7043,-3.7042,-3.7041,-3.7654,-3.7679,-3.7661,-3.7701,-3.7741,-3.7652,-3.7719,-3.7636,-3.7559,-3.7608,-3.7619,-3.7616,-3.7603,-3.7619,-3.762,-3.7621,-3.7621,-3.7622,-3.7623,-3.7943,-3.7917,-3.7983,-3.7974,-3.7984,-3.7988,-3.792,-3.7929,-3.7917,-3.7852,-3.7852,-3.7754,-3.743,-3.7351,-3.7637,-3.7635,-3.7633,-3.7631,-3.763,-3.8319,-3.822,-3.8322,-3.8332,-3.8314,-3.836,-3.8253,-3.8278,-3.8273,-3.8309,-3.8199,-3.7973,-3.792,-3.789,-3.7825,-3.8216,-3.8216,-3.8216,-3.8216,-3.8549,-3.8513,-3.8597,-3.8619,-3.8631,-3.8545,-3.8663,-3.8613,-3.8546,-3.8538,-3.8469,-3.8374,-3.8348,-3.831,-3.8271,-3.8209,-3.8689,-3.8689,-3.869,-3.8775,-3.8736,-3.8853,-3.8783,-3.8763,-3.8749,-3.8857,-3.889,-3.8793,-3.8707,-3.853,-3.851,-3.8356,-3.831,-3.8222,-3.8164,-3.8047,0,0]},{"header":{"parameterUnit":"m.s-1","parameterCategory":1,"la1":30.2992,"la2":30.254,"lo1":-89.0895,"lo2":-89.0443,"dy":0.0025,"dx":0.0025,"nx":19,"ny":19,"refTime":"2026-04-09T21:00:00:Z","depth":0,"parameterNumber":3,"parameterNumberName":"V-component_of_WINDS"},"data":[0,0,0,-1.0207,-1.021,-1.0368,-1.0369,-1.0547,-1.0548,0,0,0,0,0,0,0,0,0,0,0,-1.0145,-1.0146,-1.0206,-1.021,-1.0368,-1.0369,-1.0547,-1.0548,0,0,0,0,0,0,0,0,0,0,0,-1.0145,-1.0145,-1.0146,-1.0211,-1.0368,-1.0369,-1.0546,-1.0436,0,0,0,0,0,0,0,0,0,0,-1.0286,-1.0215,-1.0145,-1.0146,-1.0211,-1.0367,-1.0369,-1.0431,-1.0443,-1.0465,0,-1.048,0,-1.0517,-1.0558,-1.0559,0,0,0,-1.0221,-1.0205,-1.0261,-1.0146,-1.0213,-1.0367,-1.03,-1.0438,-1.0451,-1.048,-1.0483,-1.049,-1.052,-1.0559,-1.056,-1.0648,-1.0648,0,0,-1.0213,-1.0166,-1.0251,-1.0268,-1.0242,-1.0295,-1.0305,-1.0446,-1.0446,-1.0484,-1.0495,-1.0523,-1.056,-1.0562,-1.0648,-1.0648,0,0,0,-1.018,-1.0159,-1.0212,-1.026,-1.0291,-1.0299,-1.031,-1.044,-1.0461,-1.0497,-1.0525,-1.0561,-1.0563,-1.0648,-1.0648,-1.0595,0,0,0,-1.0175,-1.014,-1.0208,-1.018,-1.0288,-1.0367,-1.03,-1.0451,-1.0469,-1.0524,-1.0561,-1.0565,-1.0649,-1.0648,-1.0597,-1.0578,0,0,0,-1.014,-1.0136,-1.0154,-1.0178,-1.0244,-1.0366,-1.0396,-1.0456,-1.0485,-1.0559,-1.0565,-1.0649,-1.0648,-1.0599,-1.0581,-1.0586,0,0,0,-1.0089,-1.0106,-1.0152,-1.0182,-1.0242,-1.0332,-1.0395,-1.0465,-1.0522,-1.0562,-1.0649,-1.0648,-1.0599,-1.0583,-1.0587,-1.0581,-1.0575,0,0,-1.0084,-1.0103,-1.0125,-1.0171,-1.024,-1.0311,-1.0374,-1.0471,-1.0522,-1.0603,-1.0606,-1.0596,-1.0581,-1.0586,-1.0554,-1.0548,0,0,0,-1.0107,-1.0121,-1.015,-1.0201,-1.0276,-1.0337,-1.043,-1.0466,-1.0537,-1.0554,-1.0602,-1.0594,-1.0599,-1.0598,-1.0593,-1.06,-1.0646,-1.0646,-1.0646,-1.0032,-1.0095,-1.0134,-1.0215,-1.0264,-1.0359,-1.0405,-1.047,-1.052,-1.053,-1.0554,-1.0527,-1.0524,-1.0521,-1.0528,-1.0557,-1.0557,-1.0557,-1.0557,-1.003,-1.006,-1.0125,-1.0185,-1.0251,-1.0303,-1.0395,-1.0428,-1.0486,-1.0515,-1.0522,-1.0546,-1.0513,-1.0522,-1.0553,-1.0554,-1.0554,-1.0555,-1.0555,-0.9987,-1.0012,-1.0055,-1.0135,-1.019,-1.0272,-1.0324,-1.0383,-1.044,-1.0447,-1.0479,-1.048,-1.0487,-1.0458,-1.0458,-1.0458,-1.0458,-1.0458,-1.0458,-0.9926,-0.9976,-1.0012,-1.0091,-1.0131,-1.0191,-1.0286,-1.0327,-1.0388,-1.0427,-1.0428,-1.0476,-1.0498,-1.0501,-1.0457,-1.0457,-1.0457,-1.0457,-1.0457,-0.9899,-0.9914,-0.9969,-1.0009,-1.0106,-1.0155,-1.023,-1.0309,-1.0352,-1.0375,-1.0422,-1.0429,-1.0454,-1.0458,-1.0461,-1.0409,-1.0409,-1.0409,-1.0409,-0.9862,-0.988,-0.9949,-1.0008,-1.0074,-1.0146,-1.0207,-1.028,-1.0359,-1.0389,-1.0405,-1.0415,-1.0417,-1.0441,-1.0446,-1.045,-1.0395,-1.0395,-1.0395,-0.9848,-0.9875,-0.9914,-0.999,-1.007,-1.0137,-1.0195,-1.0261,-1.0354,-1.0396,-1.0414,-1.0414,-1.0431,-1.0433,-1.0475,-1.0481,-1.049,0,0]}]]